Location: Bonny Doon Airfield
(37.0704°N, 122.1252°W)
Time: 07:58:54
(UTC-07:00)

ISS - Pass Details

Date: 15 October 2017
Orbit: 401 x 408 km, 51.6° (Epoch: 19 October)

Event Time Altitude Azimuth Distance (km) Brightness Sun altitude
Rises 20:16:20 0° 297° (WNW) 2,320 1.2 -21.7°
Reaches altitude 10° 20:18:44 10° 280° (W) 1,458 0.1 -22.2°
Maximum altitude 20:21:16 21° 229° (SW) 976 -1.5 -22.7°
Enters shadow 20:22:10 19° 206° (SSW) 1,049 -1.6 -22.9°
